Flag for Norway Weather past 2 weeks in Vennesla, Norway

Now
50 °F

Passing clouds.


Feels Like: 50 °F
Forecast: 48 / 60 °F
Wind: 1 mph from North

Location: Kristiansand / Kjevik

Current Time: Sep 5, 2015 at 1:14:52 AM

Latest Report: Sep 5, 2015 at 12:20 AM


Visibility: N/A

Pressure: 29.65 "Hg

Humidity: 100%

Dew point: 50 °F

Location of VenneslaLocation

Historic Weather in Vennesla — Graph

°F

Vennesla temperature yesterday

Maximum temperature yesterday: 64 °F (at 2:50 PM)
Minimum temperature yesterday: 48 °F (at 11:20 PM)
Average temperature yesterday: 55 °F

Past Weeks' High & Low Weather Summary

 TemperatureHumidityPressure
High72 °F (Aug 21, 3:50 PM)100% (Aug 22, 5:50 AM)30.33 "Hg (Aug 22, 5:50 AM)
Low48 °F (Aug 29, 6:50 AM)47% (Aug 21, 3:50 PM)29.39 "Hg (Sep 2, 6:20 AM)
Average60 °F84%29.88 "Hg
* Reported Aug 20 11:20 PM — Sep 4 11:50 PM, Vennesla, Weather by CustomWeather, © 2015

Note: Actual official high and low records may vary slightly from our data, if they occured in-between our weather recording intervals... More about our weather records

Advertising

Vennesla weather history for previous 24 hours

 ConditionsComfort  
Time TempWeatherWind HumidityBarometerVisibility
11:50 PM
Fri, Sep 4
50 °FPassing clouds.5 mph94%29.65 "HgN/A
11:20 PM48 °FPassing clouds.3 mph100%29.68 "HgN/A
10:50 PM50 °FClear.5 mph100%29.68 "Hg10 mi
10:20 PM52 °FClear.1 mph94%29.68 "Hg10 mi
9:50 PM52 °FClear.2 mph94%29.71 "Hg10 mi
9:20 PM54 °FClear.3 mph88%29.71 "Hg10 mi
8:50 PM55 °FSunny.7 mph82%29.71 "Hg10 mi
8:20 PM55 °FSunny.7 mph82%29.74 "Hg10 mi
7:50 PM57 °FPassing clouds.5 mph82%29.74 "HgN/A
7:20 PM61 °FScattered clouds.7 mph72%29.74 "HgN/A
6:50 PM59 °FScattered clouds.7 mph77%29.74 "HgN/A
6:20 PM61 °FScattered clouds.8 mph72%29.74 "HgN/A
5:50 PM61 °FScattered clouds.9 mph68%29.77 "HgN/A
5:20 PM61 °FScattered clouds.10 mph68%29.77 "HgN/A
4:50 PM63 °FScattered clouds.6 mph64%29.77 "HgN/A
4:20 PM63 °FScattered clouds.7 mph68%29.80 "HgN/A
3:50 PM63 °FScattered clouds.8 mph68%29.80 "HgN/A
3:20 PM63 °FScattered clouds.8 mph64%29.80 "HgN/A
2:50 PM64 °FScattered clouds.5 mph60%29.83 "HgN/A
2:20 PM63 °FScattered clouds.7 mph59%29.83 "HgN/A
1:50 PM63 °FScattered clouds.6 mph73%29.83 "HgN/A
1:20 PM63 °FScattered clouds.7 mph68%29.83 "HgN/A
12:50 PM61 °FBroken clouds.6 mph77%29.83 "HgN/A
12:20 PM59 °FPartly sunny.6 mph82%29.83 "HgN/A
11:50 AM57 °FScattered showers. Partly sunny.7 mph88%29.83 "HgN/A
11:20 AM57 °FPartly sunny.8 mph88%29.83 "HgN/A
10:50 AM57 °FScattered clouds.9 mph88%29.86 "HgN/A
10:20 AM59 °FScattered clouds.9 mph82%29.86 "HgN/A
9:50 AM57 °FScattered clouds.10 mph88%29.83 "HgN/A
9:20 AM55 °FScattered clouds.9 mph88%29.86 "HgN/A
8:50 AM52 °FScattered clouds.8 mph94%29.86 "HgN/A
8:20 AM52 °FScattered clouds.7 mph94%29.86 "HgN/A
7:50 AM52 °FPartly sunny.7 mph100%29.86 "HgN/A
7:20 AM52 °FScattered showers. Passing clouds.9 mph94%29.86 "HgN/A
6:50 AM52 °FRain. Partly cloudy.8 mph94%29.86 "HgN/A
6:20 AM50 °FLight rain. Partly cloudy.7 mph100%29.86 "HgN/A
5:50 AM50 °FLight rain. Passing clouds.8 mph100%29.86 "HgN/A
5:20 AM50 °FRain. Partly cloudy.8 mph100%29.86 "Hg2 mi
4:50 AM50 °FPassing clouds.7 mph94%29.86 "HgN/A
4:20 AM50 °FPassing clouds.9 mph94%29.86 "HgN/A
3:50 AM50 °FPassing clouds.8 mph94%29.86 "HgN/A
3:20 AM50 °FPassing clouds.9 mph94%29.86 "HgN/A
2:50 AM50 °FPassing clouds.10 mph94%29.86 "HgN/A
2:20 AM50 °FPassing clouds.10 mph94%29.86 "HgN/A
1:50 AM52 °FPartly cloudy.10 mph94%29.86 "HgN/A
1:20 AM50 °FPassing clouds.10 mph100%29.86 "HgN/A
Weather by CustomWeather, © 2015

See weather overviewHow to use our weather pages